Tracking 19164 objects as of 21-May-2018
HD Live streaming from Space Station
objects crossing your sky now

FLOCK 2K 02

Track FLOCK 2K 02 now!
10-day predictions
FLOCK 2K 02 is classified as:


NORAD ID: 42853
Int'l Code: 2017-042AE
Perigee: 463.6 km
Apogee: 477.7 km
Inclination: 97.0 °
Period: 93.9 minutes
Semi major axis: 6841 km
RCS: Unknown
Launch date: July 14, 2017
Source: United States (US)
Launch site: TYURATAM MISSILE AND SPACE COMPLEX (TTMTR)
aabbcc
Your satellite tracking list
Your tracking list is empty




NASA's NSSDC Master Catalog

Two Line Element Set (TLE):
1 42853U 17042AE  18141.25653529  .00002857  00000-0  88578-4 0  9990
2 42853  96.9830  38.5491 0010309 204.8870 155.1878 15.34134526 47450
Source of the keplerian elements: AFSPC